Overview Statistics Trail Chart Weather Telemetry Raw packets
 

This is the latest recevied weather packets stored in our database for station/object KB4RFE. If no packets are shown the sender has not sent any weather packets the latest 10 day(s).

<< 102 103 104 105 106 107 108 >>
Time Temp. Humidity Pressure Rain* Wind** Luminosity Snow
1787859075 24.44° C 88% 1018.2 hPa 9.65 mm - 33 W/m² -
1787858771 25° C 85% 1018.4 hPa 0.51 mm - 32 W/m² -
1787858467 25.56° C 82% 1018.4 hPa 0 mm - 29 W/m² -
1787858166 26.11° C 82% 1018.4 hPa 0 mm - 32 W/m² -
1787857861 26.67° C 79% 1018.4 hPa 0 mm - 31 W/m² -
1787857558 27.78° C 76% 1018.6 hPa 0 mm - 22 W/m² -
1787857256 28.89° C 74% 1018.6 hPa 0 mm - 19 W/m² -
1787856956 29.44° C 80% 1018.3 hPa 0 mm - 72 W/m² -
1787856651 30° C 77% 1018.2 hPa 0 mm - 218 W/m² -
1787856345 30.56° C 76% 1018.2 hPa 0 mm - 325 W/m² -
1787856041 30.56° C 75% 1018.1 hPa 0 mm - 1057 W/m² -
1787855740 30.56° C 77% 1017.8 hPa 0 mm - 898 W/m² -
1787855436 30.56° C 77% 1017.8 hPa 0 mm - 916 W/m² -
1787855131 31.11° C 74% 1017.9 hPa 0 mm - 621 W/m² -
1787854826 30.56° C 77% 1018 hPa 0 mm - 961 W/m² -
1787854525 30.56° C 76% 1018.2 hPa 0 mm - 1004 W/m² -
1787854221 30.56° C 78% 1018.4 hPa 0 mm - 991 W/m² -
1787853915 30.56° C 76% 1018.2 hPa 0 mm - 909 W/m² -
1787853615 30.56° C 75% 1018.6 hPa 0 mm - 922 W/m² -
1787853313 30.56° C 78% 1018.1 hPa 0 mm - 923 W/m² -
1787853009 31.11° C 77% 1018.4 hPa 0 mm - 927 W/m² -
1787852703 30.56° C 76% 1018.7 hPa 0 mm - 402 W/m² -
1787852402 30° C 77% 1018.6 hPa 0 mm - 415 W/m² -
1787852101 30° C 77% 1018.7 hPa 0 mm - 496 W/m² -
1787851796 30.56° C 78% 1018.9 hPa 0 mm - 417 W/m² -

* Rain latest hour (hover to see other rain measurements)
** Current wind speed in m/s (hover to see current wind gust speed)